{"data":{"norad_id":47790,"intl_designator":"2021-018D","name":"STARLINK-2319","alt_names":[],"object_type":"PAYLOAD","status":"ACTIVE","operator":null,"country":"US","launch_date":"2021-03-11","launch_site_code":"AFETR","launch_vehicle":null,"mission":null,"orbit_class":"UNKNOWN","rcs_meters":null,"size_class":null,"mass_kg":null,"dimensions":null,"purposes":["comms"],"wikipedia_slug":null,"has_3d_model":false,"image_url":null,"decayed_at":null,"tle_current":{"epoch":"2026-05-25T04:56:42.783072Z","epoch_age_seconds":54307,"freshness":"FRESH","line1":"1 47790U 21018D   26145.20605073  .00001174  00000+0  49609-4 0  9994","line2":"2 47790  53.1574 220.8089 0001529  85.2215 274.8961 15.31702812288828","mean_motion":15.31702812,"eccentricity":0.0001529,"inclination_deg":53.1574,"raan_deg":220.8089,"arg_perigee_deg":85.2215,"mean_anomaly_deg":274.8961,"bstar":4.9609e-5,"rev_number":28882,"period_min":94.013015365542,"perigee_km":469.6844208019,"apogee_km":471.7788048237,"semimajor_km":6848.8686128128,"source":"CELESTRAK","updated_at":"2026-05-25T13:38:16.597964Z"}}}